GEFSNGP_con_probscp_180.txt.gz
Probability
0 0 0 0 0 0 0 0 0 0 1 2 5 11 17 20 20 17 15 15 17 19 23 26 23 18 16 19 23 23 20 17 13 11 9 9 8 8 7 7 6 6 5 4
0 0 0 0 0 1 2 2 1 0 1 3 8 14 20 22 21 19 18 18 19 23 28 30 26 19 17 19 23 23 21 17 13 10 9 8 7 6 5 6 6 5 4 4
0 0 0 0 0 1 5 5 3 2 2 6 12 19 25 27 24 21 21 22 24 29 34 34 29 22 20 22 24 24 21 17 14 11 10 8 6 4 4 5 5 3 2 2
0 0 0 0 1 3 6 8 7 7 8 13 20 25 28 29 28 25 25 26 27 31 36 34 28 24 24 27 27 24 21 18 17 15 13 11 7 5 4 4 3 1 1 1
0 0 0 1 4 7 9 10 13 15 20 25 30 30 29 30 32 34 34 32 30 32 35 32 27 26 27 28 26 24 21 19 18 17 15 12 7 4 2 1 1 0 0 0
0 0 0 1 5 9 10 11 17 24 29 34 35 31 29 32 38 43 43 40 36 35 34 31 28 28 28 26 23 20 18 17 16 14 13 10 6 3 1 0 0 0 0 0
0 0 0 3 7 8 7 10 20 30 37 39 37 34 33 36 42 46 46 43 39 36 33 29 28 28 26 22 18 15 13 13 12 10 9 7 5 2 1 0 0 0 0 0
0 0 0 4 10 9 8 15 26 36 43 44 44 43 40 38 42 46 45 41 37 33 28 25 25 26 25 18 13 12 11 11 10 8 7 6 4 2 0 0 0 0 0 0
4 4 5 9 14 15 17 25 33 40 45 48 50 47 42 39 42 45 43 38 35 31 25 21 20 23 23 17 12 12 12 11 9 7 6 5 3 1 0 0 0 0 0 0
12 13 14 16 19 22 26 31 36 41 45 47 46 43 39 38 39 39 35 32 31 29 25 20 18 21 21 17 14 13 12 11 9 7 6 4 2 1 0 0 0 0 0 0
14 16 18 20 22 26 31 35 38 40 41 40 37 33 30 28 28 27 26 26 26 26 24 21 20 21 21 18 15 13 11 10 9 7 5 3 1 0 0 0 0 0 0 0
10 11 15 18 21 25 30 33 34 34 32 29 25 21 18 17 16 16 16 18 19 20 21 20 20 22 21 19 16 14 11 10 9 6 3 1 0 0 0 0 0 0 0 0
7 8 12 16 20 24 25 25 25 26 24 20 17 13 11 11 11 10 9 9 11 14 16 17 18 19 19 18 16 13 11 10 7 4 1 0 0 0 0 0 0 0 0 0
6 9 13 16 19 21 21 19 18 17 16 14 12 11 9 9 8 7 4 4 6 8 10 12 14 14 13 14 14 12 10 8 4 1 0 0 0 0 0 0 0 0 0 0
8 11 13 15 17 19 19 16 13 10 9 9 8 8 7 6 5 4 2 1 2 4 6 8 9 8 7 9 11 10 8 6 2 0 0 0 0 0 0 0 0 0 0 0
10 11 12 13 14 15 14 12 8 5 4 4 4 4 4 4 3 1 0 0 1 2 3 3 4 4 4 5 7 7 5 4 2 0 0 0 0 0 0 0 0 0 0 0
7 7 7 8 8 8 8 6 3 1 1 2 1 1 1 1 1 1 0 0 0 1 1 1 1 2 3 3 4 3 2 2 1 0 0 0 0 0 0 0 0 0 0 0
4 4 3 3 3 3 2 1 0 0 0 0 0 0 0 0 0 0 0 0 0 1 1 1 0 1 2 2 2 2 1 1 0 0 0 0 0 0 0 0 0 0 0 0
2 3 3 3 2 1 0 0 0 0 0 0 0 0 0 0 0 0 0 0 0 0 1 1 0 0 1 1 1 1 1 0 0 0 0 0 0 0 0 0 0 0 0 0
1 3 3 3 2 1 0 0 0 0 0 0 0 0 0 0 0 0 0 0 0 0 0 0 0 0 0 0 0 0 0 0 0 0 0 0 0 0 0 0 0 0 0 0
1 1 1 1 1 0 0 0 0 0 0 0 0 0 0 0 0 0 0 0 0 0 0 0 0 0 0 0 0 0 0 0 0 0 0 0 0 0 0 0 0 0 0 0
0 0 0 0 0 0 0 0 0 0 0 0 0 0 0 0 0 0 0 0 0 0 0 0 0 0 0 0 0 0 0 0 0 0 0 0 0 0 0 0 0 0 0 0
0 0 0 0 0 0 0 0 0 0 0 0 0 0 0 0 0 0 0 0 0 0 0 0 0 0 0 0 0 0 0 0 0 0 0 0 0 0 0 0 0 0 0 0
0 0 0 0 0 0 0 0 0 0 0 0 0 0 0 0 0 0 0 0 0 0 0 0 0 0 0 0 0 0 0 0 0 0 0 0 0 0 0 0 0 0 0 0
0 0 0 0 0 0 0 0 0 0 0 0 0 0 0 0 0 0 0 0 0 0 0 0 0 0 0 0 0 0 0 0 0 0 0 0 0 0 0 0 0 0 0 0
0 0 0 0 0 0 0 0 0 0 0 0 0 0 0 0 0 0 0 0 0 0 0 0 0 0 0 0 0 0 0 0 0 0 0 0 0 0 0 0 0 0 0 0
0 0 0 0 0 0 0 0 0 0 0 0 0 0 0 0 0 0 0 0 0 0 0 0 0 0 0 0 0 0 0 0 0 0 0 0 0 0 0 0 0 0 0 0

GEFSNGP_con_probscp_186.txt.gz
Probability
0 0 0 0 0 0 0 0 0 0 0 1 3 6 11 18 25 29 33 38 40 36 33 35 36 34 32 34 38 38 35 34 33 32 31 26 22 19 18 17 14 12 9 6
0 0 0 0 0 0 0 0 0 0 1 3 5 8 15 23 28 31 37 43 44 40 37 38 39 37 36 38 40 41 39 35 32 31 28 24 21 20 19 17 14 12 9 8
0 0 0 0 0 0 0 1 2 3 4 7 11 15 20 27 32 37 43 50 51 46 43 42 41 40 41 42 43 43 39 33 29 26 23 20 20 19 18 16 14 11 11 10
0 0 0 0 0 0 1 4 6 8 10 14 18 22 25 30 35 42 50 56 56 51 48 48 45 43 43 43 44 41 35 29 26 23 19 18 18 17 15 14 13 12 10 10
0 0 0 1 1 2 3 6 9 12 18 23 25 26 30 36 39 44 51 58 59 55 53 53 49 45 43 43 42 39 32 27 25 21 19 18 17 16 15 15 14 11 8 8
0 0 0 1 2 3 4 9 14 19 26 32 31 32 40 47 47 47 52 57 58 57 57 57 51 44 41 40 39 36 31 27 24 21 20 20 18 16 15 15 13 10 7 5
0 0 1 3 5 8 14 23 28 30 35 40 41 44 50 56 54 51 52 56 58 58 59 58 51 44 40 38 36 34 31 26 23 22 21 20 19 17 15 13 11 9 6 4
1 2 6 12 19 25 34 42 42 41 43 49 52 52 53 55 55 53 53 57 60 61 59 55 50 47 45 39 34 32 28 24 22 22 20 19 17 16 13 11 9 7 5 4
6 10 18 27 37 44 48 51 50 47 48 53 55 52 50 50 52 54 55 59 62 62 57 51 47 48 47 40 33 28 24 21 21 20 19 18 16 15 12 10 8 6 4 3
17 22 31 39 46 49 48 48 48 48 49 52 53 52 50 48 49 52 55 59 61 59 54 48 43 42 42 39 32 26 22 20 20 19 18 16 15 13 11 9 7 6 4 3
26 32 40 45 47 48 48 47 46 45 46 49 50 50 49 47 46 47 49 53 55 54 49 43 38 35 35 34 30 25 22 21 20 19 17 14 12 10 8 7 6 5 4 3
30 36 43 47 49 50 50 50 48 45 43 43 44 43 42 42 41 41 42 44 45 44 40 36 32 29 28 28 26 24 23 22 21 19 16 12 9 7 5 4 3 3 2 1
33 36 41 47 50 50 50 50 49 45 41 38 36 34 33 34 35 34 35 34 33 32 31 29 25 21 19 20 21 22 22 21 20 18 15 11 8 6 4 2 1 1 1 0
30 31 36 43 46 46 46 45 44 41 38 34 30 27 26 27 28 28 28 27 25 23 23 21 18 15 13 14 16 18 19 19 18 16 13 9 7 6 5 3 1 0 0 0
23 24 29 35 38 38 38 38 38 35 31 27 24 22 22 22 23 23 23 22 21 19 17 15 12 10 11 13 15 16 17 17 16 13 9 7 6 5 4 2 1 0 0 0
21 21 24 28 31 30 29 30 30 28 25 22 19 19 19 19 18 19 19 18 16 15 13 11 8 8 10 13 15 16 15 13 12 10 8 7 5 3 1 1 1 0 0 0
17 18 19 22 24 24 23 23 23 20 19 18 17 17 16 15 15 16 16 14 13 12 10 8 6 7 9 12 13 14 13 9 8 8 8 7 5 2 1 0 0 0 0 0
12 13 14 16 18 19 18 18 17 14 13 13 14 14 13 12 12 13 13 12 11 9 6 4 4 5 8 9 10 11 10 8 6 6 6 6 5 3 1 0 0 0 0 0
9 9 10 12 14 15 15 15 14 12 12 12 11 10 9 9 9 10 10 9 7 5 3 1 1 3 5 6 7 7 7 6 5 4 4 3 3 2 1 0 0 0 0 0
6 6 8 10 13 13 14 13 12 12 12 10 8 7 6 6 7 8 7 6 4 2 1 0 0 1 3 3 4 4 4 4 3 3 2 2 1 0 0 0 0 0 0 0
5 4 6 10 12 13 12 11 9 8 8 6 4 4 4 5 6 6 5 4 3 1 0 0 0 1 2 2 2 3 3 3 3 2 1 1 0 0 0 0 0 0 0 0
7 6 6 10 13 12 11 9 6 5 4 2 1 2 4 5 4 3 3 3 2 1 0 0 0 0 1 1 1 3 3 3 2 1 0 0 0 0 0 0 0 0 0 0
7 6 7 9 11 11 10 7 5 4 3 1 0 2 3 3 2 1 1 1 1 0 0 0 0 0 0 0 1 2 2 1 1 1 0 0 0 0 0 0 0 0 0 0
5 5 6 7 8 9 8 6 5 4 2 1 1 2 3 1 1 0 0 0 0 0 0 0 0 0 0 0 0 1 1 0 0 0 0 0 0 0 0 0 0 0 0 0
6 5 4 5 6 7 5 4 3 2 2 1 1 1 1 0 0 0 0 0 0 0 0 0 0 0 0 0 0 0 0 0 0 0 0 0 0 0 1 1 0 0 0 0
6 5 4 3 4 4 2 1 1 1 1 1 0 0 0 0 0 0 0 0 0 0 0 0 0 0 0 0 0 0 0 0 0 0 0 1 1 1 2 2 1 1 0 0
4 4 3 2 2 2 1 0 0 0 0 0 0 0 0 0 0 0 0 0 0 0 0 0 0 0 0 0 0 0 0 0 0 0 1 2 2 2 3 3 2 2 1 0

GEFSNGP_con_probscp_192.txt.gz
Probability
0 0 0 0 0 0 0 0 1 3 8 11 16 21 27 36 44 53 58 60 64 64 62 60 57 57 58 59 62 60 56 54 52 49 43 37 33 32 30 27 24 22 21 20
0 0 0 0 0 0 0 0 1 5 10 16 23 31 40 46 50 56 61 65 67 68 66 63 60 59 59 60 60 58 55 52 51 47 40 33 30 29 27 26 24 22 20 18
0 0 0 0 0 0 1 2 4 8 14 21 31 42 52 57 57 59 65 70 73 73 71 68 64 62 59 57 57 55 52 49 48 45 36 28 25 24 23 22 21 19 17 16
0 0 0 0 0 1 3 5 8 12 18 25 35 44 54 62 64 64 67 71 74 73 71 69 67 63 57 54 53 51 48 46 45 41 34 26 22 21 20 19 18 17 15 14
0 0 0 0 0 1 3 6 10 15 23 30 35 42 55 66 71 70 70 71 71 69 68 67 67 64 58 54 52 50 47 46 44 39 31 26 23 21 20 19 18 17 15 13
0 0 0 1 2 1 3 9 15 22 32 40 43 49 61 71 73 72 70 71 70 67 68 69 68 65 60 57 55 52 49 47 43 37 30 27 25 22 20 20 19 17 15 13
0 0 2 5 7 10 17 26 30 35 44 54 61 66 71 74 72 68 67 69 68 68 69 69 68 66 62 60 58 54 50 47 42 35 28 25 24 21 19 19 19 16 13 11
5 8 15 22 26 32 43 49 48 49 55 64 73 78 77 74 71 67 66 67 68 69 68 67 67 66 64 62 60 55 49 43 38 32 26 23 23 21 19 19 19 16 12 10
18 25 36 44 50 54 58 57 54 55 59 64 72 77 77 75 73 71 69 69 68 67 66 65 65 65 64 63 60 53 44 36 30 26 23 22 22 21 20 19 18 15 12 11
37 41 46 52 57 60 57 53 52 53 57 62 69 72 74 75 75 74 72 69 67 64 63 62 62 61 61 60 55 48 38 30 24 22 21 21 21 21 20 19 17 16 14 12
48 48 48 50 55 57 55 52 50 50 54 60 65 68 70 71 72 70 68 66 63 60 58 57 56 54 54 53 49 41 33 26 22 21 22 22 20 18 17 16 14 13 12 12
46 47 47 49 53 54 53 52 51 51 54 58 62 63 63 63 62 60 59 59 58 54 51 50 49 49 48 46 42 36 29 24 21 22 23 22 19 16 12 10 8 7 7 8
41 41 42 45 48 48 49 51 52 54 56 58 58 55 52 52 53 51 50 51 50 48 46 43 43 44 44 40 37 33 26 21 20 20 21 20 18 15 12 8 5 4 3 3
34 36 38 39 40 42 46 50 53 55 57 56 51 46 43 44 46 46 45 44 43 42 40 35 33 35 36 35 33 29 23 19 18 18 17 17 17 15 12 10 8 6 3 1
27 30 33 33 34 36 40 46 51 53 53 50 45 42 41 41 41 41 41 40 38 37 34 29 26 26 28 29 29 25 20 17 16 16 14 14 15 13 11 9 9 8 5 3
22 24 25 27 28 29 32 38 44 48 47 46 42 39 37 36 37 38 38 36 35 34 33 30 26 25 26 27 26 21 17 14 14 13 12 12 13 11 9 8 8 7 5 5
19 19 20 22 24 25 28 33 38 41 42 42 39 33 29 30 33 35 34 32 30 31 33 32 29 27 26 25 22 16 12 10 10 10 11 11 11 10 8 7 6 5 4 4
13 15 17 20 24 27 29 32 34 35 37 38 34 28 25 25 28 29 27 26 26 27 29 29 26 24 23 22 19 13 9 7 8 9 10 10 9 9 8 7 6 5 4 3
10 13 16 20 25 28 30 31 31 31 33 33 30 26 24 23 24 23 21 20 22 24 26 24 17 16 17 16 13 11 8 6 7 8 9 8 8 8 7 6 6 5 3 1
11 12 15 19 23 24 27 29 29 28 29 28 26 23 21 20 20 19 17 17 20 23 22 17 12 10 10 8 6 5 6 5 6 6 7 7 7 7 7 5 4 3 1 0
13 14 16 16 15 16 21 26 26 24 22 22 21 18 17 17 17 16 14 15 17 18 14 11 9 7 4 2 1 1 2 3 4 4 5 6 6 7 7 6 3 2 0 0
18 18 18 15 12 14 19 23 22 19 17 17 16 15 16 18 16 13 12 14 13 10 7 7 6 3 0 0 0 0 0 1 2 3 4 4 5 6 7 6 4 2 0 0
26 26 23 18 17 19 21 21 20 20 19 18 18 17 19 22 19 13 11 10 8 4 3 4 2 1 0 0 0 0 0 0 1 2 2 2 3 5 5 4 3 1 0 0
26 27 25 19 17 18 18 18 18 20 20 20 21 21 23 23 19 13 6 4 3 1 1 1 0 0 0 0 0 0 0 0 0 0 1 1 2 3 3 2 1 0 0 0
18 20 20 16 13 12 12 12 14 15 15 16 18 20 21 20 17 12 6 2 0 0 0 0 0 0 0 0 0 0 0 0 0 0 0 1 1 1 1 0 0 0 0 0
11 13 13 11 9 8 7 8 10 11 11 12 13 14 14 13 13 11 8 4 1 0 0 0 0 0 0 0 0 0 1 1 0 0 0 0 0 0 0 0 0 0 0 0
8 10 10 7 6 6 5 6 8 10 10 11 10 8 7 7 8 8 7 4 1 0 0 0 0 0 0 0 0 1 2 2 1 0 0 0 0 0 0 0 0 0 0 0

GEFSNGP_con_probscp_198.txt.gz
Probability
0 0 0 0 0 0 1 1 2 5 7 9 13 21 29 37 41 43 45 44 39 39 40 41 38 35 35 37 39 43 46 44 36 30 27 26 24 20 14 11 12 12 10 9
0 0 0 0 0 1 2 2 5 8 10 12 16 25 34 42 46 48 48 45 41 39 40 41 41 42 41 40 39 41 46 45 38 29 24 23 20 18 14 12 12 11 9 7
0 0 0 0 1 2 3 5 9 14 16 18 22 31 41 47 50 51 50 46 43 41 40 39 43 45 45 43 40 41 44 45 38 28 21 19 17 16 15 14 12 10 7 5
0 0 0 2 4 6 6 8 13 19 24 27 32 39 46 49 50 51 50 47 45 44 41 40 42 44 44 42 40 39 40 40 34 25 19 17 16 16 15 13 11 8 6 6
0 0 0 3 7 10 10 12 17 25 34 41 46 51 52 50 50 53 54 52 48 47 46 45 43 43 42 40 38 36 34 33 29 23 19 17 17 16 15 12 10 8 6 6
0 0 0 4 9 12 14 17 23 31 42 50 55 56 54 52 54 59 60 57 53 52 51 49 45 43 41 38 34 31 29 26 24 21 18 18 17 16 14 13 10 8 7 7
0 0 1 6 12 14 17 23 29 37 47 55 57 56 56 57 61 65 65 61 58 56 54 50 46 43 40 34 29 26 24 22 21 19 17 16 16 14 14 13 11 9 8 8
0 1 4 10 15 18 23 29 37 45 54 60 62 60 59 60 63 65 64 61 57 55 52 48 45 42 37 30 25 23 23 21 18 16 15 14 13 13 13 14 13 11 10 9
6 8 12 17 22 26 30 37 44 53 59 63 64 62 60 60 60 59 58 56 52 48 46 44 42 39 34 29 25 24 23 19 15 12 11 11 11 11 13 14 14 12 10 10
16 19 22 25 30 36 40 44 50 54 58 61 61 59 57 56 54 53 53 51 47 44 41 39 36 33 30 26 25 24 21 16 11 9 9 10 9 10 11 13 14 13 12 11
21 24 26 28 32 38 43 48 52 54 56 56 56 54 51 49 48 48 48 45 43 41 38 35 31 26 22 22 21 21 18 13 9 9 9 8 8 8 9 11 12 13 12 11
19 23 27 28 30 34 42 49 53 56 54 50 48 45 43 41 40 41 39 36 34 34 32 29 25 19 16 16 17 17 15 11 7 7 7 7 8 8 7 7 7 8 8 9
17 22 27 30 31 36 44 50 55 54 49 43 40 38 37 35 34 33 31 27 25 26 25 24 21 16 13 14 15 15 13 9 6 5 6 7 8 8 6 4 3 3 3 4
17 20 26 31 33 37 43 47 49 47 42 38 36 34 33 32 29 27 25 22 21 22 22 21 19 16 14 14 14 13 12 8 5 4 5 7 8 8 6 4 3 2 1 1
15 18 24 29 31 33 35 36 37 36 35 34 33 31 30 28 24 22 21 20 19 19 18 17 16 15 15 15 14 12 10 7 5 4 4 6 7 8 6 4 3 3 1 1
11 14 20 24 26 27 26 25 26 27 28 29 29 28 27 24 21 20 19 17 15 15 15 15 14 14 15 15 14 11 8 6 5 4 4 5 7 7 6 5 4 3 3 2
7 10 14 18 20 22 21 20 21 22 23 25 25 23 23 21 20 20 19 16 13 11 12 13 13 13 14 14 12 9 7 7 5 4 4 6 7 7 6 6 4 3 3 3
5 6 9 12 16 20 21 20 20 21 21 21 21 20 20 19 19 20 19 16 12 10 9 10 11 11 12 11 9 7 7 6 5 3 4 6 7 7 6 5 4 3 2 1
4 5 7 10 14 18 20 20 21 22 21 21 20 20 19 17 16 17 17 14 11 8 7 7 8 9 9 8 7 6 5 5 4 3 3 4 5 5 4 4 3 2 1 0
4 6 8 9 12 16 17 18 20 21 21 21 21 20 17 15 14 14 13 11 8 5 5 5 6 7 6 5 4 3 3 3 2 2 2 1 2 3 3 3 3 1 0 0
4 6 9 9 11 13 14 14 15 17 18 20 20 18 15 14 13 12 11 9 6 3 3 4 5 6 5 3 1 1 1 1 1 1 1 0 0 1 3 3 3 1 0 0
6 7 7 8 11 11 10 10 11 12 13 15 17 16 14 13 12 11 10 8 6 4 3 3 4 4 3 1 0 0 0 0 0 0 0 0 0 1 2 2 2 1 0 0
7 6 6 7 9 9 8 8 8 7 7 9 11 12 12 11 10 8 7 6 5 4 3 3 2 2 1 0 0 0 0 0 0 0 0 0 0 0 1 1 1 1 0 0
7 7 7 7 7 6 6 8 7 6 6 7 8 9 10 9 7 5 4 3 3 3 2 1 1 0 0 0 0 0 0 0 0 0 0 0 0 0 0 0 0 0 0 0
7 7 7 7 6 6 7 8 8 8 9 9 8 7 8 7 4 2 1 1 1 1 1 0 0 0 0 0 0 0 0 0 0 0 0 0 0 0 0 0 0 0 0 0
6 6 6 6 5 6 7 8 8 8 9 9 8 7 5 4 2 1 0 0 0 0 0 0 0 0 0 0 0 0 0 0 0 0 0 0 0 0 0 0 0 0 0 0
4 4 4 4 4 5 7 7 6 6 7 8 7 6 4 2 1 0 0 1 1 1 0 0 0 0 0 0 0 0 0 0 0 0 0 0 0 0 0 0 0 0 0 0

GEFSNGP_con_probscp_204.txt.gz
Probability
0 0 1 2 2 2 1 1 1 1 1 2 4 6 10 14 15 17 18 16 11 8 8 9 9 10 11 12 13 16 18 19 21 19 17 15 13 13 13 12 11 10 10 10
0 0 2 3 4 4 3 2 2 2 3 5 8 10 14 18 21 23 24 20 15 11 11 12 13 14 15 15 15 16 17 18 18 17 16 14 13 12 12 12 10 9 9 10
0 0 1 3 4 3 4 4 5 5 7 11 14 15 16 22 26 27 26 25 21 17 16 17 18 18 19 20 20 19 18 17 16 15 13 12 12 12 12 12 10 9 9 9
0 0 0 1 2 2 3 6 9 11 13 16 18 17 18 22 26 28 28 28 26 23 22 23 23 22 23 25 26 24 21 19 16 13 10 10 11 12 12 12 11 9 8 7
0 0 0 1 3 3 4 7 12 17 19 20 21 20 19 21 25 29 32 33 32 29 27 27 27 27 27 29 28 26 23 20 17 14 10 9 11 13 12 13 12 10 8 6
0 0 0 1 3 5 4 6 11 16 20 21 23 22 20 22 27 31 34 37 37 35 32 30 29 30 30 29 27 24 21 17 16 14 11 10 10 11 12 13 12 11 8 7
0 0 0 1 4 5 4 5 9 13 16 19 21 22 25 28 32 35 37 38 39 39 36 30 28 29 28 26 21 18 16 14 13 12 11 9 7 8 9 11 11 10 8 8
0 0 0 2 4 4 3 6 11 14 15 18 22 26 32 34 37 41 44 41 40 40 36 29 26 26 25 22 17 15 15 13 10 9 7 5 5 4 6 8 8 8 7 6
2 2 1 2 4 5 5 10 15 18 19 21 26 31 34 36 39 44 46 43 40 38 34 27 23 23 23 21 16 14 13 11 8 6 5 3 2 3 3 4 5 5 4 4
6 6 4 4 6 8 11 16 21 24 25 26 30 33 33 34 37 41 42 40 37 35 32 25 21 20 20 18 14 11 9 7 6 5 5 3 2 2 2 2 2 3 3 4
6 6 6 6 7 11 17 24 30 32 33 34 35 35 33 33 35 35 35 35 34 33 30 25 20 18 16 13 12 9 6 4 3 4 4 3 3 2 2 2 2 2 3 4
3 3 4 5 8 14 22 30 35 38 38 38 37 34 31 30 30 29 28 29 30 29 26 23 19 17 13 10 10 9 7 5 4 3 3 3 3 3 1 1 1 1 1 2
1 1 2 5 11 19 26 32 36 38 37 35 31 28 25 23 22 22 22 22 23 23 22 20 18 15 11 8 8 9 9 8 6 4 3 3 3 2 1 0 0 0 0 1
1 2 4 8 16 23 28 31 33 34 32 29 25 22 19 16 15 16 17 16 17 19 18 17 15 12 9 7 7 8 10 9 7 5 4 3 3 2 1 0 0 0 0 0
4 4 6 12 17 22 27 29 29 27 26 23 21 19 16 13 11 10 10 9 12 15 15 14 12 9 7 6 6 8 9 8 6 4 3 3 2 1 0 0 0 0 0 0
6 5 8 12 15 19 23 26 26 23 21 20 19 17 15 12 8 6 5 6 8 10 11 11 10 8 6 5 5 6 7 7 5 4 3 3 1 0 0 0 0 0 0 0
4 4 6 9 11 13 17 21 22 21 20 19 16 13 12 11 8 6 5 5 6 7 7 8 8 6 3 3 4 6 6 5 4 3 3 2 1 0 0 0 0 0 0 0
2 2 3 5 7 9 12 16 18 19 19 17 13 10 11 10 8 7 6 6 6 6 6 5 4 3 2 2 3 5 6 4 3 3 3 2 1 0 0 0 0 0 0 0
3 3 3 4 6 7 9 12 15 17 17 15 12 10 10 9 8 7 6 6 6 6 5 3 2 2 2 2 3 4 4 3 3 3 3 3 1 1 0 0 0 0 0 0
4 4 5 5 6 7 8 10 13 15 14 12 12 11 9 8 7 7 6 6 6 4 2 1 2 3 3 3 3 3 3 2 2 3 3 3 2 1 0 0 0 0 0 0
3 3 4 4 5 6 7 8 10 11 11 10 11 10 9 7 6 6 7 6 4 2 1 1 3 4 3 2 2 2 1 0 1 1 2 2 2 1 0 0 0 0 0 0
2 2 3 3 4 5 6 6 7 7 7 8 8 7 6 5 4 5 6 5 3 1 2 3 3 2 1 1 1 1 0 0 0 0 1 1 1 0 0 0 0 0 0 0
1 1 2 2 3 3 3 4 4 4 5 5 5 4 4 4 3 3 4 3 1 1 2 2 2 1 0 0 0 0 0 0 0 0 0 0 0 0 0 0 0 0 0 0
0 1 1 1 1 1 1 2 3 3 3 3 3 3 4 3 2 1 1 1 0 0 1 1 1 0 0 0 0 0 0 0 0 0 0 0 0 0 0 0 0 0 0 0
1 2 2 2 1 1 1 2 3 3 4 4 3 3 3 2 1 0 0 0 0 0 0 0 0 0 0 0 0 0 0 0 0 0 0 0 0 0 0 0 0 0 0 0
2 2 2 2 2 2 2 3 3 4 5 4 3 3 2 2 1 0 0 0 0 0 0 0 0 0 0 0 0 0 0 0 0 0 0 0 0 0 0 0 0 0 0 0
1 1 1 1 1 1 2 3 3 4 4 4 3 3 3 2 1 0 0 0 0 0 0 0 0 0 0 0 0 0 0 0 0 0 0 0 0 0 0 0 0 0 0 0

GEFSNGP_con_probscp_210.txt.gz
Probability
0 0 0 0 0 0 0 0 0 1 2 5 10 12 11 13 19 27 36 42 42 39 39 39 39 39 37 35 33 31 29 25 23 23 22 20 17 16 17 17 15 14 11 10
0 0 0 0 0 0 1 1 1 2 4 8 12 15 16 18 22 30 40 46 46 44 43 44 45 43 41 38 35 34 32 28 25 24 23 21 19 18 19 19 17 15 13 11
0 0 0 0 1 2 3 4 4 6 9 12 16 19 20 21 25 32 41 47 49 49 49 49 48 46 43 39 36 35 33 31 28 26 25 24 22 22 22 23 22 19 15 13
0 0 0 1 2 4 5 9 11 12 14 17 19 19 18 20 25 30 37 44 49 51 51 50 47 45 44 41 39 37 34 31 30 28 27 26 25 24 24 24 24 21 17 14
0 0 0 2 3 4 7 12 17 20 21 20 17 15 16 21 25 30 36 43 50 53 54 53 51 48 46 45 44 42 37 32 29 28 27 26 26 25 24 23 22 19 16 14
0 0 1 4 6 7 9 14 20 25 25 22 18 17 23 30 32 34 39 46 52 56 57 57 55 52 51 50 49 45 40 34 29 26 25 26 26 26 24 23 21 17 13 12
0 0 2 6 9 10 13 19 24 27 28 27 26 28 33 39 41 41 43 47 53 58 59 57 56 55 55 54 51 47 42 36 30 27 25 25 26 26 26 25 22 16 10 8
2 3 5 10 14 16 20 25 28 30 33 34 35 38 41 43 44 44 46 49 53 58 57 53 52 53 55 54 50 47 43 37 31 27 24 23 24 24 24 23 20 14 8 6
6 8 10 14 18 20 23 28 32 34 36 37 38 41 44 44 43 45 49 51 53 56 54 51 48 49 51 50 49 47 43 37 31 27 25 23 21 19 18 18 14 9 6 4
12 12 12 14 18 20 23 27 31 34 35 36 38 41 43 44 45 48 50 51 52 54 54 51 47 45 45 45 46 46 42 35 29 25 24 22 17 13 13 12 9 6 4 3
16 14 12 11 14 18 21 24 27 29 32 34 36 40 42 45 49 51 50 48 50 52 52 48 43 41 40 41 42 42 39 31 24 21 20 18 14 10 8 7 6 4 4 3
15 15 13 11 12 16 19 22 24 27 29 30 32 37 41 46 53 53 47 44 44 45 44 40 37 36 37 38 39 38 34 26 20 19 19 16 12 8 5 3 2 3 3 3
13 13 12 12 12 14 18 21 24 25 26 27 31 35 40 46 51 49 42 38 37 36 34 31 30 32 34 36 36 34 30 23 18 18 19 16 12 8 4 1 0 1 1 2
11 11 12 13 13 13 14 20 23 23 23 27 32 35 38 42 44 41 36 33 31 30 30 28 28 29 31 30 29 28 24 19 16 15 16 15 12 10 7 3 1 1 1 1
8 9 11 12 12 12 13 17 22 23 25 29 32 33 32 33 34 33 30 28 27 27 28 28 28 27 26 25 23 21 19 15 13 13 13 13 12 11 8 6 4 3 3 2
6 7 9 10 11 13 14 17 22 26 28 30 30 28 25 23 24 24 24 24 25 25 25 26 25 23 21 20 20 18 15 11 10 11 13 12 10 9 8 6 5 4 4 3
3 4 6 7 11 15 17 20 24 26 27 27 26 25 23 20 20 21 21 23 25 25 24 22 21 19 16 15 16 16 13 9 8 10 11 10 8 6 6 6 5 4 3 3
1 1 2 5 10 15 20 22 24 24 23 22 22 24 24 22 22 22 21 21 24 25 22 18 18 16 12 10 12 13 12 10 8 8 8 8 7 6 6 5 4 3 3 4
0 0 1 3 6 12 17 19 19 19 18 16 18 21 23 24 24 22 20 19 21 21 18 14 12 11 9 7 9 11 11 10 9 7 6 6 6 5 4 4 3 3 4 4
0 0 2 3 5 8 12 13 13 13 12 13 15 19 21 22 22 20 17 17 18 17 15 12 10 9 9 7 7 9 10 9 8 7 5 5 5 5 3 3 3 3 3 4
1 2 3 5 5 6 8 9 10 9 9 10 13 15 17 18 17 16 15 16 16 16 13 11 11 12 11 9 7 8 10 9 7 5 4 4 4 3 2 2 2 2 2 2
2 3 3 4 5 6 6 7 8 8 9 9 11 12 13 14 14 14 14 15 15 14 13 11 11 10 9 8 8 9 9 8 6 4 3 2 2 1 1 0 1 1 1 1
4 4 3 2 4 4 5 6 7 8 9 9 9 10 12 13 14 13 13 12 12 12 12 10 7 5 5 7 10 10 10 8 6 4 2 1 1 0 0 0 0 0 0 0
5 4 3 2 3 4 5 6 8 9 8 8 9 10 11 12 14 14 12 10 10 11 11 8 4 2 3 8 12 12 10 7 5 3 2 1 0 0 0 0 0 0 0 0
4 4 3 2 2 3 5 6 8 8 7 7 7 8 9 10 12 13 11 10 9 10 10 7 3 1 3 9 12 11 9 6 4 3 2 1 1 1 1 1 1 0 0 0
3 3 3 2 2 3 4 5 6 6 5 5 6 6 6 7 10 11 10 9 8 8 7 6 3 1 4 9 10 8 6 4 2 2 1 1 2 2 2 2 2 1 0 0
3 3 4 3 3 3 4 4 4 4 4 4 4 4 4 6 9 10 9 8 7 6 5 5 3 3 5 9 9 7 4 2 1 1 0 0 1 3 3 3 2 1 0 0

GEFSNGP_con_probscp_216.txt.gz
Probability
0 0 0 0 0 0 0 0 2 5 9 11 13 16 22 27 29 31 35 42 51 56 60 60 59 57 52 49 50 52 53 53 51 51 47 41 36 34 31 29 29 30 30 29
0 0 0 0 0 0 0 1 3 7 11 15 19 24 30 34 35 35 39 46 55 63 66 65 62 59 56 54 54 55 55 54 51 49 45 38 33 31 30 30 30 31 31 31
0 0 0 0 0 0 2 4 6 10 15 20 28 37 44 47 46 45 46 52 62 71 74 71 66 63 62 60 59 59 59 56 52 48 44 38 33 30 29 30 30 31 32 32
0 0 0 0 0 1 4 7 10 15 20 25 34 44 51 55 56 55 55 59 68 74 76 74 70 67 65 61 60 60 61 59 53 48 46 41 36 32 31 31 30 29 30 31
0 0 1 0 1 2 5 10 15 21 26 32 38 44 50 56 59 59 60 65 70 73 74 74 73 70 66 62 59 59 61 60 55 49 47 44 39 36 35 34 30 27 27 29
0 1 1 1 1 2 7 15 22 29 35 41 44 44 48 56 59 59 62 65 67 70 72 74 74 71 67 64 61 60 60 59 56 52 50 47 43 40 39 36 30 25 24 25
1 2 3 4 5 9 17 26 32 37 42 46 47 46 49 58 61 61 62 63 64 69 73 76 76 72 68 65 64 62 60 58 56 52 50 48 45 43 40 36 31 26 24 23
4 7 10 13 16 22 31 37 39 40 42 44 45 44 48 56 61 61 61 62 65 69 73 76 76 74 70 68 68 65 61 58 55 50 46 46 45 42 39 34 31 28 25 23
13 15 19 22 24 28 33 38 39 39 39 39 40 41 46 53 58 58 58 61 64 67 70 72 71 70 70 71 70 65 61 58 54 49 46 45 45 41 36 32 31 29 26 24
22 20 19 20 21 22 24 28 33 37 37 36 38 41 47 53 56 54 54 57 60 64 67 67 64 63 66 69 68 63 58 56 52 46 43 44 43 37 31 29 28 26 24 23
26 23 19 18 17 16 15 17 24 31 34 34 37 41 46 51 53 51 49 52 57 62 66 65 62 62 63 65 64 59 55 51 46 39 37 38 36 30 23 19 18 17 17 17
25 26 24 22 19 15 11 11 16 22 26 30 33 38 42 46 49 50 48 50 55 59 61 60 60 61 62 63 61 57 51 45 39 34 32 31 30 25 16 10 7 7 7 9
21 23 25 24 20 16 14 13 15 18 21 24 30 34 39 43 45 47 49 50 52 53 52 50 51 54 58 59 57 53 46 39 33 29 27 27 28 25 18 10 5 3 2 2
13 15 19 20 18 17 19 19 19 19 19 21 28 34 38 41 42 44 46 47 46 46 45 43 45 48 50 50 49 45 39 33 28 25 24 25 26 25 20 15 11 7 4 2
7 8 10 12 13 17 21 23 22 21 20 22 28 34 36 38 37 39 41 42 40 41 42 42 43 44 44 42 40 37 33 28 25 23 21 22 22 19 17 16 13 11 8 6
5 5 6 7 10 15 20 23 23 23 24 26 30 33 34 34 33 33 36 38 38 39 40 41 41 42 40 36 33 31 28 23 20 18 17 16 16 15 14 14 11 10 10 9
6 6 6 6 8 13 18 21 23 24 25 28 30 32 33 32 31 33 33 34 38 40 40 39 39 39 36 32 28 25 22 19 16 14 13 12 13 14 13 13 10 9 10 10
3 5 5 5 8 12 16 17 19 20 22 25 28 30 31 31 32 33 31 30 33 36 36 36 35 33 30 28 26 21 17 15 13 12 11 11 12 13 13 12 10 8 8 8
1 2 3 5 8 12 15 15 15 16 18 20 24 26 26 27 28 29 28 26 26 28 30 31 29 26 24 23 20 17 13 12 12 11 10 11 11 11 11 11 10 8 7 7
1 2 5 7 9 11 12 13 13 14 15 17 19 21 22 22 23 24 25 25 24 26 26 26 25 22 20 16 12 9 8 10 12 11 10 11 10 9 9 9 9 8 6 6
2 4 7 9 9 8 8 9 10 11 11 12 13 16 19 21 21 22 23 23 25 26 25 23 21 18 15 11 7 5 6 8 10 10 10 10 9 9 10 9 9 8 7 6
6 8 9 9 8 6 4 4 5 7 7 7 9 13 17 19 19 19 20 21 22 21 20 19 15 12 10 10 8 7 6 7 8 10 10 9 9 11 11 11 10 10 8 7
8 9 10 9 8 6 3 2 3 5 6 6 8 11 13 15 16 16 15 16 17 15 15 14 11 7 7 9 10 9 8 8 8 9 9 8 9 10 10 9 10 10 8 6
8 9 9 8 7 6 5 4 5 7 8 8 9 10 11 12 13 13 11 11 12 12 11 9 7 5 5 8 10 10 9 9 9 9 8 8 8 7 7 7 7 7 6 5
6 6 6 6 7 7 7 7 8 8 8 8 10 11 10 9 10 11 10 10 9 10 9 7 5 4 6 9 10 11 10 10 9 9 8 8 7 6 6 5 5 4 4 4
4 4 4 5 6 6 6 5 4 4 4 6 8 9 8 7 7 9 11 10 9 10 10 8 6 5 7 9 10 11 10 9 9 10 9 8 7 6 5 5 4 3 3 4
3 3 4 4 4 4 4 2 1 1 1 3 6 7 7 5 6 9 10 9 9 10 10 9 7 6 8 9 9 10 10 9 9 10 9 8 6 5 5 6 4 3 3 3

GEFSNGP_con_probscp_222.txt.gz
Probability
0 0 0 0 0 0 1 2 4 6 9 10 10 12 15 18 23 26 25 24 23 20 18 18 20 25 31 35 37 35 35 35 33 28 25 22 17 13 11 10 10 11 13 13
0 0 1 2 2 1 2 4 6 9 13 13 15 19 22 24 27 31 32 32 30 26 22 21 22 25 30 33 34 33 33 35 34 30 28 25 21 17 15 13 12 13 15 15
0 1 2 4 4 4 6 9 11 15 18 20 22 25 26 26 28 33 37 38 37 33 31 30 28 28 31 33 34 33 33 35 36 34 31 29 25 22 21 20 18 18 18 18
1 2 2 3 3 6 10 15 19 22 24 26 27 26 25 24 26 31 34 36 38 38 37 37 36 35 35 38 38 37 36 36 38 37 33 30 27 24 25 24 23 21 20 18
2 2 2 1 2 7 13 18 22 25 27 28 26 23 23 24 27 29 31 33 37 40 41 40 40 41 41 41 42 42 40 37 37 37 35 31 28 25 24 24 23 21 18 16
2 2 2 3 4 8 13 18 19 22 25 25 24 22 23 26 29 30 31 35 40 43 44 42 43 46 46 45 46 45 42 38 36 34 33 30 28 27 25 23 21 18 15 14
2 2 3 4 6 8 11 15 16 18 20 23 25 26 27 29 31 31 33 37 43 45 44 43 45 47 47 48 49 46 42 40 38 34 31 28 27 27 25 23 20 17 14 13
2 1 2 4 6 7 10 14 16 18 21 23 27 31 33 32 33 33 36 41 44 44 43 42 43 43 44 45 44 42 41 40 39 36 32 28 27 27 26 24 20 16 14 12
2 2 2 3 5 7 11 14 17 19 22 23 26 32 34 33 33 34 38 42 43 42 41 41 40 40 40 39 37 39 42 42 39 35 31 28 26 25 24 23 19 15 12 11
5 4 3 3 4 6 9 13 16 19 21 22 24 27 30 30 31 33 35 38 39 38 39 38 37 37 37 36 35 37 41 41 37 32 28 25 23 21 20 19 16 12 9 8
5 4 3 4 4 5 8 11 13 15 18 19 20 22 24 26 28 30 30 31 33 34 34 35 35 33 32 32 32 33 36 35 32 28 26 24 20 15 13 12 11 8 6 5
3 2 2 2 3 6 9 11 11 11 13 14 15 16 19 22 24 26 26 25 28 31 32 34 34 31 28 26 26 27 30 29 26 24 23 22 18 12 7 6 5 4 4 4
3 2 1 1 2 4 7 10 10 10 11 11 12 13 16 20 22 21 20 20 24 27 30 33 33 30 27 24 22 23 25 25 23 21 21 20 16 12 6 3 2 1 2 2
3 3 1 1 1 2 5 7 9 11 12 12 11 13 15 17 18 16 14 15 18 22 26 29 30 28 26 23 22 22 21 21 20 19 19 19 16 12 8 5 2 1 1 1
4 4 3 3 3 4 5 6 8 11 12 11 10 11 12 13 13 13 13 14 16 19 22 24 25 25 24 23 21 20 18 18 18 17 17 18 15 11 9 8 5 1 1 1
4 5 5 6 6 6 6 7 9 11 11 9 8 7 8 10 12 13 15 16 18 19 20 19 20 21 22 21 20 19 17 16 17 16 16 16 15 12 10 9 6 3 2 2
2 3 5 6 6 6 6 7 9 9 8 8 7 7 9 11 13 14 14 15 16 18 17 16 16 18 20 20 20 19 18 16 15 15 14 14 13 11 10 8 7 4 2 1
0 1 2 5 6 5 5 6 6 6 6 7 9 10 12 13 13 13 12 12 13 14 14 14 15 17 18 19 19 18 16 15 14 13 13 11 10 8 8 7 6 4 1 0
0 0 1 2 3 3 2 3 4 4 5 8 10 12 12 13 12 11 10 11 11 11 11 12 14 16 16 17 16 14 12 11 11 11 10 8 6 6 6 6 5 3 1 0
0 0 0 1 1 1 0 1 2 3 4 7 10 11 11 11 11 10 10 11 11 11 10 11 13 14 14 13 11 10 9 8 8 8 7 5 5 5 5 5 4 3 1 0
0 0 0 0 0 0 0 0 1 1 3 5 7 8 9 9 9 9 9 10 11 11 10 10 11 11 12 10 9 8 8 8 8 7 5 4 4 4 4 4 4 4 2 1
0 0 0 0 0 0 0 0 0 1 2 2 3 4 6 6 6 7 7 8 9 9 9 10 9 9 8 9 10 10 9 8 8 6 4 3 3 3 3 4 4 4 2 1
0 0 0 0 0 0 0 0 0 0 1 1 0 1 3 3 4 4 4 5 5 6 8 9 8 6 6 9 10 10 8 7 7 6 5 4 4 4 4 4 5 4 2 1
0 0 0 0 0 0 0 0 0 0 0 0 0 0 1 1 2 3 2 3 4 4 6 6 5 5 5 7 8 7 6 6 5 6 6 6 6 6 6 6 6 5 3 2
0 0 0 0 0 0 0 0 0 0 0 0 0 0 0 0 1 3 4 4 4 4 4 4 4 4 4 4 5 4 4 4 4 5 6 6 6 6 6 6 6 5 4 3
0 0 0 0 0 0 0 0 0 0 0 0 0 0 0 0 1 2 4 5 5 4 4 4 4 3 3 3 3 3 3 3 4 5 6 6 6 6 6 5 4 4 3 2
0 0 0 0 0 0 0 0 0 0 0 0 0 0 0 0 0 2 5 6 6 6 5 5 4 3 3 3 3 3 3 3 4 5 6 5 4 4 4 4 4 3 3 3

GEFSNGP_con_probscp_228.txt.gz
Probability
1 2 3 3 2 1 1 0 0 1 1 1 1 3 5 6 7 9 9 5 4 7 9 9 9 9 9 12 16 18 18 17 16 16 16 16 16 13 9 8 11 14 15 15
2 3 3 3 2 2 2 2 1 1 1 3 5 6 7 7 7 7 7 7 8 9 10 11 11 10 9 10 15 17 18 19 20 19 17 17 16 13 9 9 12 16 16 15
3 3 3 2 1 3 5 6 4 3 5 8 11 11 10 10 9 9 10 12 12 12 12 11 12 11 10 11 15 18 18 21 24 24 22 20 18 13 10 10 13 15 15 15
2 2 2 2 3 5 9 11 10 8 12 16 18 17 14 13 13 14 16 17 17 16 14 13 12 13 13 15 18 21 22 23 27 29 27 24 21 16 13 12 13 13 14 14
2 2 2 3 6 8 12 15 14 14 18 23 24 22 18 16 15 17 19 20 20 20 20 19 18 19 20 21 22 24 26 28 30 32 31 28 24 20 16 13 12 12 12 13
3 2 2 4 8 9 10 12 13 16 21 24 24 21 18 17 17 17 17 20 22 23 24 25 23 23 25 25 25 25 27 29 31 33 32 28 25 22 17 14 11 10 10 10
3 3 2 5 10 10 7 7 10 15 19 19 18 16 14 16 18 17 17 19 23 26 27 26 24 24 24 25 24 23 23 25 28 29 27 24 23 22 19 15 12 8 8 9
2 2 2 5 9 9 6 6 10 14 15 14 13 12 13 16 18 18 18 21 24 27 28 25 23 23 23 23 22 20 20 20 22 22 20 20 21 21 19 16 13 10 9 9
2 2 2 4 6 6 6 8 10 12 13 12 11 11 13 16 18 19 19 20 22 25 26 24 23 22 20 19 18 17 18 18 18 17 16 17 18 19 18 17 16 13 11 10
2 2 1 2 3 3 4 5 7 9 10 10 10 11 12 14 16 16 16 16 18 20 22 21 21 19 17 14 13 14 15 17 17 15 14 14 15 17 16 16 15 13 10 9
2 1 0 1 1 1 1 2 3 5 6 7 8 9 9 10 11 11 11 11 12 13 15 18 18 17 15 13 12 12 13 15 15 14 12 12 13 15 14 12 11 10 8 7
2 1 0 0 0 0 0 0 1 2 4 6 6 7 7 7 7 8 7 6 7 8 9 13 15 14 13 12 12 12 13 14 14 14 13 14 15 15 12 9 7 6 6 5
1 0 0 0 0 0 0 0 1 3 5 5 5 6 7 6 7 7 5 5 5 5 6 9 11 11 10 10 12 14 15 15 15 15 18 19 19 17 14 10 6 4 4 4
0 0 0 0 0 0 0 1 2 5 6 6 6 6 5 5 6 7 6 5 5 5 6 7 9 8 7 8 11 14 15 14 16 19 21 22 20 18 16 12 8 5 4 3
0 0 0 0 0 0 0 1 3 4 6 6 6 6 5 5 6 7 7 7 7 7 7 7 8 7 7 7 9 12 13 14 17 21 22 21 19 17 15 12 9 7 5 4
0 0 0 0 0 0 0 1 2 3 4 5 5 5 5 6 6 6 7 8 10 11 10 8 7 6 6 7 8 9 11 14 17 20 20 18 17 15 13 10 8 6 5 5
0 0 0 0 0 0 0 1 1 2 3 3 3 3 4 5 6 6 6 7 10 11 11 8 6 5 6 7 8 9 11 14 16 18 18 16 15 14 12 9 7 5 5 4
0 0 0 0 0 0 0 0 0 1 2 3 3 3 3 4 5 5 4 4 6 9 9 7 6 6 7 7 7 8 11 14 16 18 17 14 13 13 12 9 7 6 5 4
0 0 0 0 0 0 0 0 0 0 1 2 3 3 3 3 3 3 3 3 5 7 7 6 6 6 7 7 8 9 11 13 15 16 15 13 12 11 10 9 8 7 5 4
0 0 0 0 0 0 0 0 0 0 0 1 2 2 3 3 3 3 4 4 4 5 6 5 5 6 7 8 8 9 10 12 15 15 13 11 10 10 9 9 7 6 5 4
0 0 0 0 0 0 0 0 0 0 0 0 1 1 1 2 3 4 4 4 3 4 4 4 5 6 7 7 8 9 10 12 14 14 11 8 8 8 7 7 6 6 5 4
0 0 0 0 0 0 0 0 0 0 0 0 0 0 0 1 1 2 2 2 2 3 3 4 5 5 5 5 7 9 9 11 12 11 8 6 5 4 4 4 5 6 5 4
0 0 0 0 0 0 0 0 0 0 0 0 0 0 0 0 0 1 1 0 1 2 3 3 4 3 2 3 6 8 9 10 9 7 4 3 2 1 1 2 4 4 4 4
0 0 0 0 0 0 0 0 0 0 0 0 0 0 0 0 0 0 0 0 0 1 1 3 3 1 1 3 6 7 7 7 6 4 3 2 1 1 1 2 3 4 4 5
0 0 0 0 0 0 0 0 0 0 0 0 0 0 0 0 0 0 0 0 0 0 1 2 2 1 2 4 6 5 4 3 3 3 3 3 2 2 2 2 3 4 6 6
0 0 0 0 0 0 0 0 0 0 0 0 0 0 0 0 0 0 0 0 0 0 0 1 2 2 3 4 4 4 2 1 1 3 3 3 3 3 2 2 2 3 5 5
0 0 0 0 0 0 0 0 0 0 0 0 0 0 0 0 0 0 0 0 0 0 0 0 1 2 3 3 3 3 3 2 2 3 3 3 3 3 3 2 2 1 2 4

GEFSNGP_con_probscp_234.txt.gz
Probability
0 0 0 0 0 0 0 0 0 1 4 8 11 11 12 13 14 17 20 21 21 23 25 23 21 23 27 29 31 33 33 31 30 30 30 26 23 21 20 21 19 18 19 20
0 0 0 0 1 1 0 1 1 2 7 12 14 14 16 18 19 22 24 25 24 27 27 23 21 23 26 30 32 34 33 31 30 30 30 29 26 25 25 23 21 19 19 20
0 0 0 1 2 2 2 3 5 6 10 14 17 19 21 24 27 29 30 30 32 34 30 26 26 27 28 30 33 33 32 30 29 29 31 32 31 30 31 29 26 23 22 22
0 0 0 2 3 3 5 8 10 13 15 15 16 21 24 26 30 33 32 32 36 37 33 30 32 33 32 33 32 32 31 30 29 29 32 34 34 33 34 34 32 29 25 24
0 0 1 3 5 6 10 14 16 17 18 17 17 22 24 24 27 32 33 31 31 32 29 28 32 35 36 35 32 31 32 33 32 32 34 37 37 37 37 35 34 31 28 26
0 0 2 6 8 8 11 15 19 20 21 21 22 26 27 24 23 27 30 29 29 29 27 27 31 35 35 33 29 29 32 34 34 34 34 36 38 40 40 37 34 31 30 28
0 0 3 9 11 10 13 17 22 25 26 27 30 34 32 25 21 22 26 29 31 32 32 32 35 36 34 30 28 29 31 33 33 32 31 31 35 39 40 37 34 31 28 27
1 2 6 12 15 16 19 21 24 28 30 32 34 33 29 23 19 20 24 29 33 36 37 37 38 37 35 32 29 28 29 29 28 28 27 27 31 33 33 33 32 29 26 25
6 8 11 15 17 19 22 23 24 27 29 30 30 27 22 19 18 19 24 29 33 35 37 38 37 36 34 32 30 28 26 26 25 25 24 24 24 24 24 26 27 26 24 23
12 13 15 16 17 17 20 22 23 24 25 25 24 20 17 16 18 20 24 28 30 33 34 35 34 32 29 27 27 26 24 24 25 24 21 19 17 17 18 21 23 25 24 23
14 14 15 16 16 16 16 18 20 21 20 20 17 14 11 12 15 18 21 24 27 30 31 30 29 27 24 23 23 22 22 23 23 21 19 16 14 13 14 16 17 19 20 20
13 14 14 15 14 13 12 12 15 16 16 14 11 10 8 9 12 14 16 19 23 25 25 24 23 21 21 20 20 21 22 23 21 20 19 17 13 12 11 10 8 8 10 11
12 12 11 10 9 8 7 7 9 11 11 9 8 8 8 8 10 11 13 15 18 20 20 18 17 17 17 18 19 20 22 22 20 19 19 18 16 15 12 7 4 3 3 2
9 8 7 5 5 4 4 5 6 7 7 5 5 6 6 6 8 10 10 10 12 15 15 14 13 13 14 16 19 21 22 21 18 18 18 19 18 17 15 10 8 8 5 2
4 4 3 3 3 3 3 3 4 4 4 3 3 4 4 4 6 7 8 8 10 11 12 12 12 11 12 16 21 23 23 20 17 16 16 17 16 16 16 14 13 13 10 7
1 1 2 3 3 3 2 1 2 3 3 2 3 4 4 3 3 4 6 8 9 10 11 13 14 13 14 17 20 22 22 17 15 15 15 14 14 14 16 17 16 15 14 13
0 0 2 3 3 2 1 0 1 2 1 1 1 3 3 3 3 3 6 9 10 11 12 15 16 16 17 17 16 16 15 12 11 13 14 13 12 12 14 18 18 15 14 14
0 0 1 2 2 1 0 0 0 0 0 0 0 1 2 3 4 5 7 10 11 10 11 12 13 14 15 14 13 12 10 9 9 11 12 11 10 10 12 16 17 15 14 13
0 0 0 1 1 0 0 0 0 0 0 0 0 0 1 2 3 4 6 9 9 9 8 8 9 11 11 10 10 11 10 9 8 9 10 9 8 8 11 14 15 14 12 12
0 0 0 0 0 0 0 0 0 0 0 0 0 0 0 1 1 3 5 6 6 6 5 5 7 8 7 6 7 9 9 8 7 8 10 9 7 8 10 13 13 12 11 12
0 0 0 0 0 0 0 0 0 0 0 0 0 0 0 0 0 1 3 3 3 3 2 3 5 6 5 4 5 6 7 7 7 8 11 11 9 9 11 12 11 10 10 10
0 0 0 0 0 0 0 0 0 0 0 0 0 0 0 0 0 0 1 1 1 1 0 1 2 2 2 2 4 6 6 6 7 10 12 11 10 10 12 12 9 8 8 8
0 0 0 0 0 0 0 0 0 0 0 0 0 0 0 0 0 0 0 0 1 0 0 0 0 0 1 3 5 6 6 7 8 10 11 11 10 11 12 11 8 6 6 6
0 0 0 0 0 0 0 0 0 0 0 0 0 0 0 0 0 0 0 0 0 0 0 0 0 0 1 2 4 5 5 6 7 9 10 10 10 10 10 8 6 6 6 6
0 0 0 0 0 0 0 0 0 0 0 0 0 0 0 0 0 0 0 0 0 0 0 0 0 0 0 1 1 2 3 5 6 8 9 9 9 8 6 5 4 6 7 6
0 0 0 0 0 0 0 0 0 0 0 0 0 0 0 0 0 0 0 0 0 0 0 0 0 0 0 0 0 1 2 4 6 7 8 8 6 5 4 3 4 5 5 5
0 0 0 0 0 0 0 0 0 0 0 0 0 0 0 0 0 0 0 0 0 0 0 0 0 0 0 0 1 2 3 4 5 6 6 5 4 4 3 3 3 4 4 4

GEFSNGP_con_probscp_240.txt.gz
Probability
0 0 0 0 0 0 0 0 2 8 16 20 19 21 24 27 31 33 37 42 44 46 48 51 54 54 50 45 43 41 41 41 40 41 41 38 34 31 31 31 31 33 34 35
0 0 0 0 0 0 0 0 3 10 19 25 25 26 28 29 32 35 38 42 46 51 55 57 56 53 50 47 47 48 47 46 45 44 42 38 34 31 31 32 32 33 33 34
0 0 1 1 0 0 1 2 6 13 23 30 32 32 34 36 38 41 43 46 51 56 59 60 56 51 48 47 49 52 52 49 47 46 44 42 38 36 35 36 36 34 33 34
0 1 2 3 2 2 2 4 8 14 24 33 36 37 39 43 46 49 50 51 53 54 54 56 55 52 49 47 47 50 49 47 47 46 46 46 43 41 40 41 41 39 37 36
1 2 4 4 4 4 5 7 13 22 32 38 39 39 41 45 47 49 49 50 50 48 47 51 54 55 54 51 49 48 46 46 47 47 48 47 45 43 43 45 46 44 40 39
1 2 4 5 5 6 8 15 26 35 42 46 43 43 45 45 43 42 44 46 44 43 44 47 51 54 55 55 51 48 47 47 48 49 50 49 47 46 47 48 48 45 40 39
2 3 6 8 9 13 21 32 40 45 49 52 51 52 53 48 42 40 41 42 41 42 44 45 47 49 52 54 52 48 47 49 50 50 49 48 50 50 49 49 49 45 41 38
7 10 15 19 22 30 40 47 47 47 52 55 54 54 53 50 45 41 40 40 41 43 47 48 49 51 54 55 53 50 49 51 51 51 47 46 48 47 44 44 43 41 38 35
17 22 28 32 37 43 48 48 45 44 48 50 46 44 43 42 40 36 36 38 41 43 47 48 50 54 57 56 53 51 51 50 50 49 45 43 42 38 35 35 34 33 32 31
25 29 32 34 36 39 42 43 41 39 39 39 37 35 35 34 33 31 33 36 38 40 42 44 47 51 53 52 50 48 47 46 44 42 39 36 35 32 30 30 29 28 28 30
27 27 28 28 29 31 35 39 38 36 34 32 31 30 31 30 29 29 31 32 33 34 36 39 42 44 43 44 46 45 43 40 37 34 31 29 28 27 26 26 24 22 22 25
24 24 24 25 23 24 28 31 32 32 29 26 25 24 25 26 27 29 30 30 30 30 31 33 35 36 37 40 44 44 40 35 32 30 28 26 25 24 21 19 16 12 12 14
24 23 21 19 16 16 18 21 23 24 23 20 18 17 18 20 24 26 28 28 27 27 27 28 28 30 34 38 42 42 36 31 29 30 29 27 24 23 21 18 13 9 6 5
23 21 17 14 11 10 11 13 15 17 17 15 14 13 13 15 20 23 24 24 24 24 24 25 25 26 29 33 36 36 31 27 27 29 30 28 26 25 24 22 20 16 10 5
18 15 13 12 10 8 7 8 10 12 13 12 12 11 10 12 16 19 21 21 21 21 20 20 20 21 23 26 29 29 27 26 27 28 29 27 26 25 25 24 23 21 17 14
12 10 9 10 9 7 6 6 6 8 9 9 9 9 10 10 11 13 16 17 17 16 16 15 15 18 21 23 25 26 26 24 25 26 26 25 24 24 24 23 21 19 18 19
9 7 6 7 7 6 5 4 4 4 5 5 6 7 8 8 8 9 12 12 11 11 12 12 14 17 20 22 23 25 24 21 20 22 22 21 21 21 21 20 17 14 14 16
5 4 2 3 5 5 4 3 3 3 3 2 2 4 6 6 7 10 10 8 6 7 9 10 12 15 17 17 18 20 19 16 17 18 17 16 15 16 16 15 13 11 11 12
1 1 0 1 3 4 3 3 3 3 2 1 1 3 4 4 6 8 8 5 5 6 8 10 10 11 11 11 11 12 11 11 13 15 14 12 11 12 12 12 11 11 11 12
0 0 0 1 3 3 3 3 3 2 1 0 1 2 3 3 4 6 6 5 4 5 6 7 8 8 7 6 5 5 5 6 8 11 12 11 10 10 10 11 12 12 13 13
0 0 1 2 3 3 3 3 2 1 0 0 1 2 3 3 3 4 4 3 3 3 3 3 4 5 4 3 3 3 3 4 5 7 8 9 10 10 10 11 12 13 13 12
1 1 2 3 3 3 3 2 1 0 0 1 2 3 3 1 1 1 1 1 1 1 0 0 1 2 2 3 3 3 3 3 4 4 5 7 8 9 10 11 12 13 13 13
3 3 3 3 3 2 1 1 0 0 0 1 2 2 2 1 0 0 0 0 0 0 0 0 0 0 1 3 3 3 3 3 3 3 4 6 7 8 9 10 12 14 14 14
4 4 3 4 3 2 1 1 1 1 0 0 1 1 1 0 0 0 0 0 0 0 0 0 0 0 1 2 2 2 2 2 2 2 3 4 5 5 6 9 11 12 13 13
3 3 3 4 4 3 2 1 1 1 1 1 0 0 0 0 0 1 1 1 0 0 0 0 0 0 0 1 1 1 1 1 1 1 2 3 4 3 4 6 7 8 9 9
2 1 1 2 3 2 1 1 1 2 2 1 0 0 0 0 1 2 2 1 0 0 0 0 0 0 0 0 0 0 1 2 2 2 3 3 3 2 2 3 4 5 6 7
1 0 0 0 1 1 1 2 2 2 2 1 0 0 0 0 1 2 2 1 0 0 0 0 0 0 0 0 0 0 1 3 4 3 3 3 2 1 1 1 3 4 5 5

GEFSNGP_con_probscp_246.txt.gz
Probability
0 1 1 0 0 0 0 1 3 3 3 5 9 12 12 12 16 22 28 29 29 27 24 24 26 30 33 35 34 32 30 27 25 25 24 24 23 23 23 24 24 24 24 25
1 2 2 1 1 1 2 3 4 4 4 8 13 17 17 19 24 28 30 30 29 28 26 26 27 29 30 31 31 31 28 26 25 25 25 26 27 27 25 24 23 23 24 24
3 3 3 3 3 4 7 8 8 8 10 15 20 21 21 25 31 34 32 29 28 27 27 26 27 28 28 27 27 28 27 25 25 25 25 26 27 26 24 22 22 22 21 20
3 3 3 4 6 9 13 15 14 15 19 24 26 24 24 26 32 35 33 30 29 28 26 27 28 29 28 26 25 28 28 27 27 27 25 24 24 22 20 20 22 21 19 18
3 3 3 4 7 12 19 21 20 19 23 27 27 26 25 26 30 33 32 31 31 30 28 29 31 32 31 29 27 29 31 30 29 28 26 24 22 20 19 19 20 20 19 18
3 3 4 5 7 11 18 22 19 18 22 26 28 27 27 27 28 29 29 28 28 29 31 32 32 31 32 31 30 31 31 30 29 27 26 25 22 19 18 17 18 19 19 18
3 4 5 7 7 7 12 15 15 16 21 25 27 27 27 26 25 26 28 28 27 29 32 34 32 29 28 28 29 29 30 30 29 27 25 22 20 19 18 17 18 18 18 18
3 4 6 8 7 5 6 9 12 15 19 23 25 25 24 22 21 23 26 28 28 28 30 32 31 30 29 28 27 27 28 29 28 27 24 19 17 17 17 17 18 18 18 17
7 7 9 11 11 10 10 11 12 14 18 21 23 21 18 17 17 18 21 24 25 24 24 25 28 31 31 30 28 28 28 28 27 26 24 20 17 15 15 16 17 17 17 17
12 13 15 16 16 17 17 16 14 15 17 20 21 18 14 13 14 15 17 21 21 20 20 20 23 26 28 28 28 28 28 27 26 26 25 22 18 15 14 14 14 14 16 16
13 15 18 17 16 17 17 16 15 16 16 17 17 15 12 11 12 14 16 18 19 18 18 18 18 19 20 21 23 25 25 24 24 24 23 20 17 15 13 12 11 11 11 12
10 12 13 12 10 11 13 12 13 14 15 14 12 10 8 8 10 12 13 14 14 14 15 16 15 13 13 15 17 19 19 18 18 19 19 18 17 15 12 10 8 6 6 6
7 8 7 6 6 8 9 10 11 12 13 12 8 6 5 5 7 8 9 9 8 8 11 13 13 12 12 13 14 15 15 15 15 16 18 19 19 17 15 11 7 4 3 2
5 4 3 3 5 6 8 9 10 10 10 7 5 4 4 4 5 5 5 6 6 5 7 9 11 11 11 12 13 13 14 14 15 16 17 19 20 19 18 15 12 8 4 2
3 2 2 3 5 6 7 8 7 7 5 3 2 2 3 3 3 2 3 5 5 4 4 5 7 7 8 9 11 12 12 12 12 12 14 16 18 18 17 16 14 12 9 5
1 1 2 4 5 5 5 5 4 3 2 0 0 1 1 1 1 1 1 2 3 3 3 3 3 3 4 5 6 7 8 7 6 7 9 12 14 15 14 13 13 12 10 8
0 1 2 4 5 4 2 3 3 2 0 0 1 1 2 1 0 0 0 0 1 1 1 2 1 1 1 1 2 3 3 3 2 3 6 9 11 11 11 11 10 9 8 7
0 1 2 3 4 3 2 2 2 1 0 1 2 3 3 2 1 0 0 0 0 0 1 1 1 0 0 0 0 1 1 1 0 1 4 6 8 9 9 8 7 6 5 5
0 0 1 1 2 2 2 2 1 0 0 1 3 3 3 2 1 0 1 1 0 0 0 0 0 0 0 0 0 0 0 0 0 1 2 2 4 6 6 4 3 3 3 3
0 0 0 0 1 2 1 1 0 0 0 2 3 2 1 1 0 0 1 1 0 0 0 0 0 0 0 0 0 0 0 0 0 0 1 1 2 3 3 2 1 1 1 1
0 0 0 0 1 2 1 0 0 0 0 1 2 1 0 0 0 0 1 1 0 0 0 0 0 0 0 0 0 0 0 0 0 0 1 2 3 3 3 1 0 0 0 0
0 0 0 1 2 3 2 0 0 0 0 0 0 0 0 0 0 0 0 0 0 0 0 0 0 0 0 0 0 0 0 0 0 0 1 3 3 3 3 2 1 0 0 0
0 0 0 1 2 2 1 0 0 0 0 0 0 0 0 0 0 0 0 0 0 0 0 0 0 0 0 0 0 0 0 0 0 0 1 2 3 3 3 2 1 0 0 0
0 0 0 1 2 1 0 0 0 0 0 0 0 0 0 0 0 0 0 0 0 0 0 0 0 0 0 0 0 0 0 0 0 0 0 1 1 2 2 1 0 0 0 0
0 0 1 2 2 1 0 0 0 0 0 0 0 0 0 0 0 0 0 0 0 0 0 0 0 0 0 0 0 0 0 0 0 0 0 0 0 1 1 0 0 0 0 0
1 1 2 3 2 1 0 0 0 0 0 0 0 0 0 0 0 0 0 0 0 0 0 0 0 0 0 0 0 0 0 0 0 0 0 0 0 0 0 0 0 0 0 0
2 2 3 3 1 0 0 0 0 0 0 0 1 1 1 0 0 0 0 0 0 0 0 0 0 0 0 0 0 0 0 0 0 0 0 0 0 0 0 0 0 0 0 0

GEFSNGP_con_probscp_252.txt.gz
Probability
0 0 0 1 2 1 0 0 0 1 2 4 5 5 4 5 7 9 9 8 7 5 4 4 7 11 13 15 19 20 17 12 9 11 13 12 9 8 7 8 10 11 11 12
0 1 1 3 4 3 1 0 1 3 4 6 8 7 6 5 6 8 10 10 10 9 7 8 10 13 14 17 21 22 19 14 11 12 13 13 12 10 9 10 12 12 13 14
1 2 2 3 6 6 4 2 3 4 6 8 10 8 7 6 6 9 13 15 16 15 13 11 12 14 15 18 21 21 19 17 16 16 16 17 16 14 13 13 13 14 15 15
3 3 2 3 5 7 7 6 5 5 6 8 10 9 9 9 9 11 15 18 18 18 16 13 13 15 17 20 22 20 18 19 20 21 21 22 20 17 15 14 13 13 15 16
2 2 2 3 3 5 8 9 8 7 8 8 10 12 12 10 10 13 16 16 15 15 14 13 14 17 19 21 22 21 19 19 20 22 22 23 20 16 14 13 12 12 14 15
1 2 2 2 2 4 7 8 8 9 10 11 12 12 12 10 12 16 17 14 11 11 13 14 14 17 19 20 21 22 21 20 20 20 20 20 18 14 12 12 12 12 12 12
1 1 1 1 2 2 3 4 6 8 10 12 11 9 9 10 13 16 16 12 8 8 12 13 13 14 17 18 19 22 22 20 20 19 19 19 17 14 13 12 12 11 11 11
0 0 0 1 3 2 1 3 5 8 10 12 11 9 10 12 14 16 15 12 8 6 7 8 9 12 14 16 18 20 20 19 18 18 18 19 19 17 15 13 11 11 11 11
2 2 1 2 3 3 1 3 6 8 11 12 11 10 10 12 15 16 15 12 9 7 6 5 7 10 14 17 18 19 18 16 16 16 17 18 18 17 15 12 11 10 10 11
6 5 4 4 5 5 4 5 8 11 12 12 11 10 9 9 11 13 12 11 10 9 8 7 8 10 14 17 19 20 18 16 16 15 15 16 16 14 12 11 11 11 11 11
6 5 4 5 7 7 5 6 9 11 12 10 8 7 7 6 6 7 7 8 8 8 7 7 8 10 13 16 18 19 18 16 16 15 15 15 12 10 9 9 10 10 10 11
2 2 3 5 7 8 7 6 8 9 9 8 5 4 3 4 3 4 4 3 3 3 4 5 8 10 12 13 14 14 14 14 14 14 14 12 10 7 6 6 6 6 7 7
0 1 2 4 7 9 8 7 6 7 6 5 2 1 1 2 2 2 1 1 1 1 2 4 7 8 9 9 9 10 10 10 10 10 10 9 8 6 5 4 3 3 2 2
1 1 2 4 7 10 9 7 5 4 3 2 0 0 0 1 1 1 0 0 0 1 2 3 4 5 5 5 5 6 6 6 6 7 7 7 7 7 7 6 5 4 2 1
0 1 1 3 6 8 8 6 4 2 1 0 0 0 0 0 0 0 0 0 0 1 1 1 2 3 3 3 3 4 4 4 4 5 5 5 6 7 8 8 7 6 4 2
0 0 0 1 4 5 5 5 3 1 0 0 0 0 0 0 0 0 0 0 0 0 0 1 2 2 3 3 3 3 3 3 2 2 2 3 4 5 6 8 8 8 6 5
1 0 0 1 3 4 3 3 1 0 0 0 0 0 0 0 0 0 0 0 0 0 0 1 1 1 2 2 2 3 3 2 1 0 0 1 1 2 3 5 6 7 7 7
1 0 0 2 3 3 2 1 0 0 0 0 0 0 0 0 0 0 0 0 0 0 0 0 0 0 1 1 1 1 2 1 0 0 0 0 0 0 1 1 2 3 4 5
1 0 0 1 2 1 2 2 1 0 0 0 0 0 0 0 0 0 0 0 0 0 0 0 0 0 0 0 0 0 0 0 0 0 0 0 0 0 0 0 0 0 1 2
2 1 0 0 0 1 2 3 2 1 0 0 0 0 0 0 0 0 0 0 0 0 0 0 0 0 0 0 0 0 0 0 0 0 0 0 0 0 0 0 0 0 0 1
2 1 0 0 0 0 1 2 2 1 0 0 0 0 0 0 0 0 0 0 0 0 0 0 0 0 0 0 0 0 0 0 0 0 0 0 0 0 0 0 0 0 0 0
2 1 0 0 0 0 0 1 1 0 0 0 0 0 0 0 0 0 0 0 0 0 0 0 0 0 0 0 0 0 0 0 0 0 0 0 0 0 0 0 0 0 0 0
1 1 0 0 0 0 0 0 0 0 0 0 0 0 0 0 0 0 0 0 0 0 0 0 0 0 0 0 0 0 0 0 0 0 0 0 0 0 0 0 0 0 0 0
0 0 0 0 0 0 0 0 0 0 0 0 0 0 0 0 0 0 0 0 0 0 0 0 0 0 0 0 0 0 0 0 0 0 0 0 0 0 0 0 0 0 0 0
0 0 0 0 0 0 0 0 0 0 0 0 0 0 0 0 0 0 0 0 0 0 0 0 0 0 0 0 0 0 0 0 0 0 0 0 0 0 0 0 0 0 0 0
0 0 0 0 0 0 0 0 0 0 0 0 0 0 0 0 0 0 0 0 0 0 0 0 0 0 0 0 0 0 0 0 0 0 0 0 0 0 0 0 0 0 0 0
0 0 0 0 0 0 0 0 0 0 0 0 0 0 0 0 0 0 0 0 0 0 0 0 0 0 0 0 0 0 0 0 0 0 0 0 0 0 0 0 0 0 0 0